Simultaneous Nadir Overpasses (SNOs) Predictions

Prediction of SNOs near equator between AQUA and NPP Satellite Orbit:

Table of predicted SNOs near equator for the next 14.0 days since TLE Epoch: 4/16/2022
Index Date (AQUA) Time (AQUA) AQUA Lat,Lon Date (NPP) Time (NPP) NPP Lat,Lon Distance(km) Time Diff (sec)
1 04/17/2022 13:53:58 5.50, -4.90 04/17/2022 13:44:10 5.34, -5.55 74.39 588
2 04/20/2022 06:09:30 3.06, 111.58 04/20/2022 06:00:22 2.87, 110.78 91.78 548
3 04/22/2022 21:36:47 -5.24, 59.46 04/22/2022 21:27:04 -5.08, 58.76 78.78 583
4 04/25/2022 13:10:25 29.95, 2.05 04/25/2022 13:00:25 30.24, 1.09 97.64 600
5 04/25/2022 13:52:16 -2.74, 175.95 04/25/2022 13:43:14 -2.56, 175.10 96.54 542
6 04/28/2022 05:19:38 4.74, 123.83 04/28/2022 05:10:02 4.62, 123.09 83.79 576
